Location: Castellar de la Frontera
(36.3200°N, 5.4500°W)
Time: 14:25:09
(UTC+01:00)

ISS - Visible Passes

Search period start: 17 February 2019 00:00
Search period end: 27 February 2019 00:00
Orbit: 403 x 411 km, 51.6° (Epoch: 17 February)

Date Brightness Start Highest point End Pass type
(mag) Time Alt. Az. Time Alt. Az. Time Alt. Az.
20 Feb -0.8 07:27:35 10° S 07:29:46 17° SE 07:31:57 10° E visible
22 Feb -2.8 07:20:00 10° SSW 07:23:08 47° SE 07:26:18 10° ENE visible
23 Feb -1.5 06:29:15 11° S 06:31:47 23° SE 06:34:25 10° ENE visible
24 Feb -0.6 05:40:45 11° ESE 05:40:45 11° ESE 05:41:36 10° ESE visible
24 Feb -3.7 07:13:30 11° WSW 07:16:37 56° NW 07:19:51 10° NE visible
25 Feb -3.7 06:24:44 59° S 06:25:08 68° SE 06:28:23 10° NE visible
26 Feb -0.7 05:35:46 16° ENE 05:35:46 16° ENE 05:36:38 10° ENE visible
26 Feb -2.4 07:08:29 16° WNW 07:10:14 24° NNW 07:12:59 10° NNE visible
